| time (UTC) | temp C | wind direction | speed KPH | gust KPH | rain 1hr cm | rain 24hr cm | rain mn cm | humidity % | barometer mb |
| 20260906191512 | 26 | 215 | 3.2 | 1.6 | 0.00 | 0.03 | 0.03 | 69 | 1021.6 |
| 20260906191012 | 27 | 276 | 3.2 | 1.6 | 0.00 | 0.03 | 0.03 | 69 | 1021.7 |
| 20260906190512 | 26 | 153 | 0.0 | 1.6 | 0.00 | 0.03 | 0.03 | 69 | 1021.7 |
| 20260906190012 | 26 | 203 | 1.6 | 1.6 | 0.00 | 0.03 | 0.03 | 70 | 1021.8 |
| 20260906185511 | 26 | 233 | 1.6 | 1.6 | 0.00 | 0.03 | 0.03 | 70 | 1022.0 |
| 20260906185011 | 26 | 162 | 1.6 | 0.0 | 0.00 | 0.03 | 0.03 | 71 | 1022.0 |
| 20260906184512 | 25 | 257 | 4.8 | 0.0 | 0.00 | 0.03 | 0.03 | 73 | 1022.0 |
| 20260906184011 | 26 | 302 | 3.2 | 1.6 | 0.00 | 0.03 | 0.03 | 73 | 1022.0 |
| 20260906183511 | 26 | 195 | 0.0 | 1.6 | 0.00 | 0.03 | 0.03 | 74 | 1022.2 |
| 20260906183012 | 25 | 149 | 0.0 | 1.6 | 0.00 | 0.03 | 0.03 | 73 | 1022.3 |
| 20260906182512 | 25 | 151 | 1.6 | 1.6 | 0.00 | 0.03 | 0.03 | 73 | 1022.3 |
| 20260906182012 | 25 | 192 | 4.8 | 1.6 | 0.00 | 0.03 | 0.03 | 74 | 1022.5 |
| 20260906181512 | 25 | 258 | 1.6 | 1.6 | 0.00 | 0.03 | 0.03 | 75 | 1022.6 |
| 20260906181012 | 25 | 209 | 3.2 | 1.6 | 0.00 | 0.03 | 0.03 | 75 | 1022.7 |
| 20260906180512 | 25 | 201 | 0.0 | 1.6 | 0.00 | 0.03 | 0.03 | 73 | 1022.6 |
| 20260906180012 | 26 | 215 | 0.0 | 0.0 | 0.00 | 0.03 | 0.03 | 73 | 1022.6 |
| 20260906175512 | 26 | 259 | 3.2 | 0.0 | 0.00 | 0.03 | 0.03 | 72 | 1022.7 |
| 20260906175011 | 25 | 129 | 0.0 | 1.6 | 0.00 | 0.03 | 0.03 | 73 | 1022.9 |
| 20260906174512 | 25 | 128 | 0.0 | 1.6 | 0.00 | 0.03 | 0.03 | 74 | 1022.9 |
| 20260906174012 | 25 | 127 | 1.6 | 1.6 | 0.00 | 0.03 | 0.03 | 74 | 1023.0 |
| 20260906173511 | 25 | 255 | 3.2 | 1.6 | 0.00 | 0.03 | 0.03 | 73 | 1023.0 |
| 20260906173011 | 25 | 199 | 4.8 | 1.6 | 0.00 | 0.03 | 0.03 | 73 | 1023.1 |
| 20260906172511 | 25 | 156 | 1.6 | 1.6 | 0.00 | 0.03 | 0.03 | 75 | 1023.1 |
| 20260906171512 | 24 | 279 | 0.0 | 0.0 | 0.00 | 0.03 | 0.03 | 76 | 1023.2 |
| 20260906171012 | 24 | 224 | 3.2 | 0.0 | 0.00 | 0.03 | 0.03 | 75 | 1023.2 |
| 20260906170512 | 24 | 283 | 1.6 | 0.0 | 0.00 | 0.03 | 0.03 | 76 | 1023.3 |
| 20260906170012 | 24 | 244 | 6.4 | 0.0 | 0.00 | 0.03 | 0.03 | 76 | 1023.3 |
| 20260906165512 | 24 | 271 | 3.2 | 0.0 | 0.00 | 0.03 | 0.03 | 76 | 1023.4 |
| 20260906165012 | 23 | 206 | 3.2 | 1.6 | 0.00 | 0.03 | 0.03 | 76 | 1023.5 |
| 20260906164511 | 23 | 120 | 0.0 | 1.6 | 0.00 | 0.03 | 0.03 | 78 | 1023.4 |
| 20260906164011 | 23 | 278 | 0.0 | 0.0 | 0.00 | 0.03 | 0.03 | 77 | 1023.5 |
| 20260906163511 | 23 | 156 | 1.6 | 0.0 | 0.00 | 0.03 | 0.03 | 78 | 1023.4 |
| 20260906162512 | 23 | 179 | 0.0 | 0.0 | 0.00 | 0.03 | 0.03 | 77 | 1023.6 |
| 20260906160512 | 22 | 241 | 3.2 | 0.0 | 0.00 | 0.03 | 0.03 | 79 | 1023.7 |
| 20260906160012 | 22 | 236 | 0.0 | 0.0 | 0.00 | 0.03 | 0.03 | 78 | 1023.8 |
| 20260906155512 | 22 | 271 | 1.6 | 1.6 | 0.00 | 0.03 | 0.03 | 78 | 1023.8 |
| 20260906154511 | 21 | 227 | 4.8 | 1.6 | 0.00 | 0.03 | 0.03 | 78 | 1023.8 |
| 20260906153511 | 21 | 229 | 0.0 | 1.6 | 0.00 | 0.03 | 0.03 | 78 | 1023.7 |
| 20260906153012 | 21 | 188 | 4.8 | 1.6 | 0.00 | 0.03 | 0.03 | 79 | 1023.7 |
| 20260906152512 | 21 | 131 | 0.0 | 0.0 | 0.00 | 0.03 | 0.03 | 80 | 1023.8 |
| 20260906152012 | 20 | 146 | 1.6 | 0.0 | 0.00 | 0.03 | 0.03 | 80 | 1023.8 |
| 20260906151512 | 20 | 134 | 3.2 | 0.0 | 0.00 | 0.03 | 0.03 | 80 | 1023.9 |
| 20260906151012 | 20 | 197 | 0.0 | 0.0 | 0.00 | 0.03 | 0.03 | 81 | 1024.0 |
| 20260906150512 | 20 | 131 | 0.0 | 1.6 | 0.00 | 0.03 | 0.03 | 81 | 1023.9 |
| 20260906150012 | 19 | 212 | 3.2 | 1.6 | 0.00 | 0.03 | 0.03 | 81 | 1023.9 |
| 20260906145512 | 19 | 136 | 0.0 | 0.0 | 0.00 | 0.03 | 0.03 | 82 | 1024.0 |
| 20260906145012 | 18 | 191 | 0.0 | 0.0 | 0.00 | 0.03 | 0.03 | 82 | 1024.2 |
| 20260906144012 | 18 | 131 | 0.0 | 0.0 | 0.00 | 0.03 | 0.03 | 84 | 1024.3 |
| 20260906143512 | 17 | 133 | 1.6 | 0.0 | 0.00 | 0.03 | 0.03 | 84 | 1024.2 |
| 20260906143012 | 17 | 167 | 3.2 | 0.0 | 0.00 | 0.03 | 0.03 | 84 | 1024.0 |
| 20260906142511 | 17 | 155 | 0.0 | 0.0 | 0.00 | 0.03 | 0.03 | 85 | 1024.0 |
| 20260906142011 | 16 | 135 | 1.6 | 1.6 | 0.00 | 0.03 | 0.03 | 87 | 1024.0 |
| 20260906141512 | 16 | 142 | 4.8 | 1.6 | 0.00 | 0.03 | 0.03 | 88 | 1024.0 |
| 20260906141012 | 16 | 102 | 1.6 | 1.6 | 0.00 | 0.03 | 0.03 | 90 | 1024.0 |
| 20260906140512 | 16 | 131 | 0.0 | 1.6 | 0.00 | 0.03 | 0.03 | 91 | 1023.9 |
| 20260906140012 | 15 | 136 | 1.6 | 0.0 | 0.00 | 0.03 | 0.03 | 91 | 1024.1 |
| 20260906135512 | 15 | 145 | 0.0 | 0.0 | 0.00 | 0.03 | 0.03 | 92 | 1024.2 |
| 20260906135012 | 15 | 124 | 1.6 | 0.0 | 0.00 | 0.03 | 0.03 | 92 | 1024.4 |
| 20260906134512 | 15 | 160 | 0.0 | 0.0 | 0.00 | 0.03 | 0.03 | 92 | 1024.4 |
| 20260906133011 | 14 | 141 | 0.0 | 0.0 | 0.00 | 0.03 | 0.03 | 92 | 1024.2 |
| 20260906132511 | 14 | 136 | 0.0 | 0.0 | 0.00 | 0.03 | 0.03 | 92 | 1024.2 |
| 20260906132011 | 14 | 136 | 0.0 | 0.0 | 0.00 | 0.03 | 0.03 | 92 | 1024.4 |
| 20260906131511 | 14 | 136 | 0.0 | 0.0 | 0.00 | 0.03 | 0.03 | 92 | 1024.3 |
| 20260906131011 | 13 | 136 | 0.0 | 0.0 | 0.00 | 0.03 | 0.03 | 92 | 1024.3 |
| 20260906130013 | 13 | 135 | 0.0 | 0.0 | 0.00 | 0.03 | 0.03 | 92 | 1024.2 |
| 20260906125512 | 13 | 136 | 0.0 | 0.0 | 0.00 | 0.03 | 0.03 | 92 | 1024.3 |
| 20260906125012 | 13 | 136 | 0.0 | 0.0 | 0.00 | 0.03 | 0.03 | 92 | 1024.3 |
| 20260906124512 | 13 | 136 | 0.0 | 0.0 | 0.00 | 0.03 | 0.03 | 92 | 1024.1 |
| 20260906124011 | 13 | 136 | 0.0 | 0.0 | 0.00 | 0.03 | 0.03 | 92 | 1024.1 |
| 20260906123011 | 13 | 136 | 0.0 | 0.0 | 0.03 | 0.03 | 0.03 | 92 | 1023.9 |
| 20260906122511 | 13 | 136 | 0.0 | 0.0 | 0.03 | 0.03 | 0.03 | 92 | 1023.8 |
| 20260906122011 | 13 | 136 | 0.0 | 0.0 | 0.03 | 0.03 | 0.03 | 92 | 1023.9 |
| 20260906121511 | 13 | 176 | 0.0 | 0.0 | 0.03 | 0.03 | 0.03 | 92 | 1023.9 |
| 20260906121012 | 13 | 179 | 0.0 | 0.0 | 0.03 | 0.03 | 0.03 | 92 | 1023.9 |
| 20260906120512 | 13 | 134 | 0.0 | 0.0 | 0.03 | 0.03 | 0.03 | 92 | 1023.7 |
| 20260906120012 | 12 | 134 | 0.0 | 0.0 | 0.03 | 0.03 | 0.03 | 92 | 1023.8 |
| 20260906115512 | 12 | 134 | 0.0 | 0.0 | 0.03 | 0.03 | 0.03 | 92 | 1023.8 |
| 20260906114512 | 12 | 134 | 0.0 | 0.0 | 0.03 | 0.03 | 0.03 | 92 | 1023.6 |
| 20260906114011 | 12 | 134 | 0.0 | 0.0 | 0.03 | 0.03 | 0.03 | 92 | 1023.4 |
| 20260906113511 | 12 | 134 | 0.0 | 0.0 | 0.03 | 0.03 | 0.03 | 92 | 1023.3 |
| 20260906113011 | 12 | 134 | 0.0 | 0.0 | 0.00 | 0.00 | 0.00 | 92 | 1023.3 |
| 20260906112511 | 12 | 134 | 0.0 | 0.0 | 0.00 | 0.00 | 0.00 | 92 | 1023.3 |
| 20260906112011 | 12 | 134 | 0.0 | 0.0 | 0.00 | 0.00 | 0.00 | 92 | 1023.3 |
| 20260906111511 | 12 | 134 | 0.0 | 0.0 | 0.00 | 0.00 | 0.00 | 92 | 1023.2 |
| 20260906110012 | 12 | 134 | 0.0 | 0.0 | 0.00 | 0.00 | 0.00 | 92 | 1023.1 |
| 20260906105512 | 12 | 134 | 0.0 | 0.0 | 0.00 | 0.00 | 0.00 | 92 | 1023.1 |
| 20260906105012 | 12 | 134 | 0.0 | 0.0 | 0.00 | 0.00 | 0.00 | 92 | 1023.1 |
| 20260906104512 | 12 | 134 | 0.0 | 0.0 | 0.00 | 0.00 | 0.00 | 92 | 1023.0 |
| 20260906104012 | 12 | 134 | 0.0 | 0.0 | 0.00 | 0.00 | 0.00 | 92 | 1023.0 |
| 20260906103012 | 12 | 134 | 0.0 | 0.0 | 0.00 | 0.00 | 0.00 | 92 | 1023.1 |
| 20260906102512 | 12 | 134 | 0.0 | 0.0 | 0.00 | 0.00 | 0.00 | 92 | 1023.0 |
| 20260906102012 | 13 | 134 | 0.0 | 0.0 | 0.00 | 0.00 | 0.00 | 92 | 1023.0 |
| 20260906101511 | 13 | 134 | 0.0 | 0.0 | 0.00 | 0.00 | 0.00 | 92 | 1023.0 |
| 20260906101012 | 12 | 134 | 0.0 | 0.0 | 0.00 | 0.00 | 0.00 | 92 | 1023.0 |
| 20260906100512 | 12 | 134 | 0.0 | 0.0 | 0.00 | 0.00 | 0.00 | 92 | 1022.9 |
| 20260906095012 | 13 | 134 | 0.0 | 0.0 | 0.00 | 0.00 | 0.00 | 92 | 1022.5 |
| 20260906094511 | 12 | 134 | 0.0 | 0.0 | 0.00 | 0.00 | 0.00 | 92 | 1022.5 |
| 20260906094011 | 13 | 134 | 0.0 | 0.0 | 0.00 | 0.00 | 0.00 | 92 | 1022.5 |
| 20260906093511 | 13 | 134 | 0.0 | 0.0 | 0.00 | 0.00 | 0.00 | 92 | 1022.4 |
| 20260906093011 | 13 | 135 | 0.0 | 0.0 | 0.00 | 0.00 | 0.00 | 92 | 1022.4 |
| 20260906092512 | 13 | 153 | 0.0 | 0.0 | 0.00 | 0.00 | 0.00 | 92 | 1022.5 |
| 20260906092012 | 13 | 131 | 0.0 | 0.0 | 0.00 | 0.00 | 0.00 | 92 | 1022.5 |
| 20260906091012 | 13 | 136 | 0.0 | 0.0 | 0.00 | 0.00 | 0.00 | 91 | 1022.4 |
| 20260906090512 | 13 | 135 | 0.0 | 0.0 | 0.00 | 0.00 | 0.00 | 91 | 1022.6 |
| 20260906090012 | 13 | 136 | 1.6 | 0.0 | 0.00 | 0.00 | 0.00 | 91 | 1022.6 |
| 20260906085512 | 13 | 144 | 0.0 | 0.0 | 0.00 | 0.00 | 0.00 | 91 | 1022.6 |
| 20260906085012 | 13 | 127 | 0.0 | 0.0 | 0.00 | 0.00 | 0.00 | 91 | 1022.7 |
| 20260906084512 | 13 | 122 | 0.0 | 0.0 | 0.00 | 0.00 | 0.00 | 91 | 1022.8 |
| 20260906084011 | 13 | 122 | 0.0 | 0.0 | 0.00 | 0.00 | 0.00 | 91 | 1022.7 |
| 20260906083511 | 13 | 122 | 0.0 | 0.0 | 0.00 | 0.00 | 0.00 | 91 | 1022.8 |
| 20260906083011 | 13 | 122 | 0.0 | 0.0 | 0.00 | 0.00 | 0.00 | 91 | 1023.0 |
| 20260906082511 | 13 | 122 | 0.0 | 0.0 | 0.00 | 0.00 | 0.00 | 91 | 1023.1 |
| 20260906082011 | 13 | 122 | 0.0 | 0.0 | 0.00 | 0.00 | 0.00 | 91 | 1023.0 |
| 20260906081512 | 13 | 122 | 0.0 | 0.0 | 0.00 | 0.00 | 0.00 | 91 | 1023.0 |
| 20260906081012 | 13 | 122 | 0.0 | 0.0 | 0.00 | 0.00 | 0.00 | 91 | 1023.1 |
| 20260906080512 | 13 | 122 | 0.0 | 0.0 | 0.00 | 0.00 | 0.00 | 91 | 1023.2 |
| 20260906075511 | 13 | 122 | 0.0 | 0.0 | 0.00 | 0.00 | 0.00 | 91 | 1023.2 |
| 20260906075011 | 13 | 122 | 0.0 | 0.0 | 0.00 | 0.00 | 0.00 | 91 | 1023.3 |
| 20260906074011 | 14 | 122 | 0.0 | 0.0 | 0.00 | 0.00 | 0.00 | 91 | 1023.4 |
| 20260906073511 | 14 | 122 | 0.0 | 0.0 | 0.00 | 0.00 | 0.00 | 91 | 1023.4 |
| 20260906073011 | 14 | 122 | 0.0 | 0.0 | 0.00 | 0.00 | 0.00 | 91 | 1023.3 |
| 20260906072511 | 14 | 122 | 0.0 | 0.0 | 0.00 | 0.00 | 0.00 | 91 | 1023.4 |
| 20260906072011 | 14 | 122 | 0.0 | 0.0 | 0.00 | 0.00 | 0.00 | 91 | 1023.3 |
| 20260906071512 | 14 | 122 | 0.0 | 0.0 | 0.00 | 0.00 | 0.00 | 91 | 1023.3 |
| 20260906071012 | 14 | 122 | 0.0 | 0.0 | 0.00 | 0.00 | 0.00 | 91 | 1023.4 |
| 20260906070512 | 14 | 148 | 0.0 | 0.0 | 0.00 | 0.00 | 0.00 | 91 | 1023.4 |
| 20260906070012 | 14 | 148 | 0.0 | 0.0 | 0.00 | 0.00 | 0.00 | 91 | 1023.5 |
| 20260906065512 | 15 | 148 | 0.0 | 0.0 | 0.00 | 0.00 | 0.00 | 91 | 1023.6 |
| 20260906065011 | 15 | 148 | 0.0 | 0.0 | 0.00 | 0.00 | 0.00 | 91 | 1023.5 |
| 20260906064511 | 15 | 148 | 0.0 | 0.0 | 0.00 | 0.00 | 0.00 | 91 | 1023.7 |
| 20260906064011 | 15 | 148 | 0.0 | 0.0 | 0.00 | 0.00 | 0.00 | 91 | 1023.8 |
| 20260906063511 | 15 | 148 | 0.0 | 0.0 | 0.00 | 0.00 | 0.00 | 91 | 1023.8 |
| 20260906063011 | 15 | 148 | 0.0 | 0.0 | 0.00 | 0.00 | 0.00 | 91 | 1023.7 |
| 20260906062511 | 15 | 148 | 0.0 | 0.0 | 0.00 | 0.00 | 0.00 | 91 | 1023.7 |
| 20260906062011 | 15 | 148 | 0.0 | 0.0 | 0.00 | 0.00 | 0.00 | 91 | 1023.8 |
| 20260906061511 | 15 | 148 | 0.0 | 0.0 | 0.00 | 0.00 | 0.00 | 91 | 1023.7 |
| 20260906060512 | 15 | 148 | 0.0 | 0.0 | 0.00 | 0.00 | 0.00 | 91 | 1023.8 |
| 20260906060012 | 15 | 148 | 0.0 | 0.0 | 0.00 | 0.00 | 0.00 | 91 | 1023.5 |
| 20260906055512 | 15 | 148 | 0.0 | 0.0 | 0.00 | 0.00 | 0.00 | 91 | 1023.5 |
| 20260906054512 | 15 | 148 | 0.0 | 0.0 | 0.00 | 0.00 | 0.00 | 91 | 1023.5 |
| 20260906054012 | 15 | 148 | 0.0 | 0.0 | 0.00 | 0.00 | 0.00 | 91 | 1023.4 |
| 20260906053512 | 15 | 148 | 0.0 | 0.0 | 0.00 | 0.00 | 0.00 | 91 | 1023.5 |
| 20260906053012 | 15 | 148 | 0.0 | 0.0 | 0.00 | 0.00 | 0.00 | 91 | 1023.5 |
| 20260906052512 | 15 | 148 | 0.0 | 0.0 | 0.00 | 0.00 | 0.00 | 91 | 1023.5 |
| 20260906052012 | 15 | 148 | 0.0 | 0.0 | 0.00 | 0.00 | 0.00 | 91 | 1023.3 |
| 20260906051511 | 15 | 127 | 0.0 | 0.0 | 0.00 | 0.00 | 0.00 | 90 | 1023.3 |
| 20260906050511 | 15 | 165 | 4.8 | 0.0 | 0.00 | 0.00 | 0.00 | 90 | 1023.3 |
| 20260906050011 | 15 | 155 | 0.0 | 0.0 | 0.00 | 0.00 | 0.00 | 90 | 1023.3 |
| 20260906045511 | 15 | 128 | 0.0 | 0.0 | 0.00 | 0.00 | 0.00 | 90 | 1023.3 |
| 20260906045011 | 16 | 136 | 0.0 | 0.0 | 0.00 | 0.00 | 0.00 | 90 | 1023.4 |
| 20260906044512 | 16 | 149 | 0.0 | 0.0 | 0.00 | 0.00 | 0.00 | 90 | 1023.2 |
| 20260906044011 | 16 | 141 | 0.0 | 0.0 | 0.00 | 0.00 | 0.00 | 90 | 1023.2 |
| 20260906043012 | 16 | 103 | 0.0 | 0.0 | 0.00 | 0.00 | 0.00 | 90 | 1023.3 |
| 20260906042513 | 16 | 103 | 0.0 | 0.0 | 0.00 | 0.00 | 0.00 | 90 | 1023.2 |
| 20260906042012 | 16 | 134 | 0.0 | 0.0 | 0.00 | 0.00 | 0.00 | 90 | 1023.1 |
| 20260906041512 | 16 | 134 | 0.0 | 0.0 | 0.00 | 0.00 | 0.00 | 90 | 1023.1 |
| 20260906041012 | 16 | 196 | 0.0 | 0.0 | 0.00 | 0.00 | 0.00 | 90 | 1023.2 |
| 20260906040511 | 16 | 181 | 0.0 | 0.0 | 0.00 | 0.00 | 0.00 | 90 | 1022.9 |
| 20260906040012 | 16 | 141 | 0.0 | 0.0 | 0.00 | 0.00 | 0.00 | 90 | 1022.8 |
| 20260906035512 | 16 | 129 | 1.6 | 0.0 | 0.00 | 0.00 | 0.00 | 90 | 1022.7 |
| 20260906034011 | 16 | 138 | 0.0 | 0.0 | 0.00 | 0.00 | 0.00 | 89 | 1022.6 |
| 20260906033511 | 16 | 138 | 0.0 | 0.0 | 0.00 | 0.00 | 0.00 | 89 | 1022.6 |
| 20260906033011 | 16 | 138 | 0.0 | 0.0 | 0.00 | 0.00 | 0.00 | 89 | 1022.5 |
| 20260906032511 | 16 | 138 | 0.0 | 0.0 | 0.00 | 0.00 | 0.00 | 89 | 1022.4 |
| 20260906032012 | 17 | 138 | 0.0 | 0.0 | 0.00 | 0.00 | 0.00 | 88 | 1022.3 |
| 20260906031512 | 17 | 138 | 0.0 | 0.0 | 0.00 | 0.00 | 0.00 | 88 | 1022.5 |
| 20260906031012 | 17 | 138 | 0.0 | 0.0 | 0.00 | 0.00 | 0.00 | 88 | 1022.5 |
| 20260906030512 | 17 | 138 | 0.0 | 0.0 | 0.00 | 0.00 | 0.00 | 88 | 1022.6 |
| 20260906030012 | 17 | 206 | 0.0 | 0.0 | 0.00 | 0.00 | 0.00 | 88 | 1022.5 |
| 20260906025512 | 17 | 162 | 0.0 | 0.0 | 0.00 | 0.00 | 0.00 | 88 | 1022.6 |
| 20260906025012 | 17 | 162 | 0.0 | 0.0 | 0.00 | 0.00 | 0.00 | 88 | 1022.6 |
| 20260906024512 | 17 | 165 | 3.2 | 0.0 | 0.00 | 0.00 | 0.00 | 88 | 1022.3 |
| 20260906024011 | 17 | 238 | 0.0 | 0.0 | 0.00 | 0.00 | 0.00 | 88 | 1022.2 |
| 20260906023511 | 17 | 134 | 0.0 | 1.6 | 0.00 | 0.00 | 0.00 | 89 | 1022.2 |
| 20260906022511 | 17 | 162 | 0.0 | 0.0 | 0.00 | 0.00 | 0.00 | 89 | 1022.4 |
| 20260906022011 | 17 | 168 | 0.0 | 0.0 | 0.00 | 0.00 | 0.00 | 89 | 1022.5 |
| 20260906021512 | 17 | 148 | 0.0 | 0.0 | 0.00 | 0.00 | 0.00 | 89 | 1022.4 |
| 20260906020511 | 17 | 133 | 0.0 | 0.0 | 0.00 | 0.00 | 0.00 | 89 | 1022.2 |
| 20260906015511 | 17 | 130 | 0.0 | 0.0 | 0.00 | 0.00 | 0.00 | 89 | 1021.9 |
| 20260906015011 | 17 | 130 | 0.0 | 0.0 | 0.00 | 0.00 | 0.00 | 89 | 1021.8 |
| 20260906014512 | 17 | 130 | 0.0 | 0.0 | 0.00 | 0.00 | 0.00 | 89 | 1021.7 |
| 20260906014011 | 17 | 130 | 0.0 | 0.0 | 0.00 | 0.00 | 0.00 | 88 | 1021.7 |
| 20260906013511 | 17 | 130 | 0.0 | 0.0 | 0.00 | 0.00 | 0.00 | 88 | 1021.7 |
| 20260906013011 | 17 | 129 | 0.0 | 0.0 | 0.00 | 0.00 | 0.00 | 88 | 1021.7 |
| 20260906012511 | 18 | 130 | 0.0 | 0.0 | 0.00 | 0.00 | 0.00 | 87 | 1021.6 |
| 20260906011511 | 18 | 129 | 0.0 | 0.0 | 0.00 | 0.00 | 0.00 | 87 | 1021.6 |
| 20260906011011 | 18 | 129 | 0.0 | 0.0 | 0.00 | 0.00 | 0.00 | 86 | 1021.5 |
| 20260906010511 | 18 | 130 | 0.0 | 0.0 | 0.00 | 0.00 | 0.00 | 86 | 1021.5 |
| 20260906010012 | 18 | 130 | 0.0 | 0.0 | 0.00 | 0.00 | 0.00 | 85 | 1021.4 |
| 20260906005512 | 18 | 130 | 0.0 | 0.0 | 0.00 | 0.00 | 0.00 | 85 | 1021.3 |
| 20260906005011 | 18 | 130 | 0.0 | 0.0 | 0.00 | 0.00 | 0.00 | 84 | 1021.3 |
| 20260906004511 | 19 | 130 | 0.0 | 0.0 | 0.00 | 0.00 | 0.00 | 83 | 1021.3 |
| 20260906004011 | 19 | 130 | 0.0 | 0.0 | 0.00 | 0.00 | 0.00 | 83 | 1021.3 |
| 20260906003012 | 20 | 130 | 0.0 | 0.0 | 0.00 | 0.00 | 0.00 | 81 | 1021.2 |
| 20260906002512 | 20 | 129 | 0.0 | 0.0 | 0.00 | 0.00 | 0.00 | 81 | 1021.1 |
| 20260906001512 | 20 | 129 | 0.0 | 0.0 | 0.00 | 0.00 | 0.00 | 79 | 1021.0 |
| 20260906001012 | 21 | 153 | 0.0 | 0.0 | 0.00 | 0.00 | 0.00 | 77 | 1021.1 |
| 20260906000511 | 22 | 138 | 0.0 | 0.0 | 0.00 | 0.00 | 0.00 | 77 | 1021.3 |
| 20260906000011 | 21 | 149 | 0.0 | 0.0 | 0.00 | 0.00 | 0.00 | 78 | 1021.1 |
| 20260905235511 | 21 | 128 | 0.0 | 0.0 | 0.00 | 0.00 | 0.00 | 78 | 1021.1 |
| 20260905235011 | 21 | 127 | 0.0 | 0.0 | 0.00 | 0.00 | 0.00 | 78 | 1021.2 |
| 20260905234011 | 21 | 144 | 0.0 | 1.6 | 0.00 | 0.00 | 0.00 | 79 | 1021.2 |
| 20260905233511 | 21 | 131 | 0.0 | 0.0 | 0.00 | 0.00 | 0.00 | 80 | 1021.3 |
| 20260905233011 | 21 | 130 | 3.2 | 0.0 | 0.00 | 0.00 | 0.00 | 79 | 1021.4 |
| 20260905232511 | 20 | 82 | 1.6 | 0.0 | 0.00 | 0.00 | 0.00 | 81 | 1021.2 |
| 20260905231511 | 20 | 84 | 0.0 | 1.6 | 0.00 | 0.00 | 0.00 | 81 | 1021.3 |
| 20260905231012 | 20 | 136 | 0.0 | 1.6 | 0.00 | 0.00 | 0.00 | 80 | 1021.5 |
| 20260905230511 | 20 | 131 | 0.0 | 1.6 | 0.00 | 0.00 | 0.00 | 79 | 1021.4 |
| 20260905230011 | 21 | 131 | 0.0 | 1.6 | 0.00 | 0.00 | 0.00 | 79 | 1021.4 |
| 20260905225011 | 21 | 142 | 0.0 | 1.6 | 0.00 | 0.00 | 0.00 | 79 | 1021.6 |
| 20260905224511 | 21 | 144 | 0.0 | 0.0 | 0.00 | 0.00 | 0.00 | 80 | 1021.3 |
| 20260905224012 | 20 | 74 | 0.0 | 1.6 | 0.00 | 0.00 | 0.00 | 81 | 1021.6 |
| 20260905223012 | 20 | 127 | 3.2 | 0.0 | 0.00 | 0.00 | 0.00 | 81 | 1021.6 |
| 20260905222512 | 20 | 139 | 0.0 | 0.0 | 0.00 | 0.00 | 0.00 | 81 | 1021.7 |
| 20260905222012 | 20 | 127 | 1.6 | 0.0 | 0.00 | 0.00 | 0.00 | 81 | 1021.7 |
| 20260905221512 | 20 | 139 | 0.0 | 0.0 | 0.00 | 0.00 | 0.00 | 80 | 1021.8 |
| 20260905221012 | 21 | 174 | 0.0 | 0.0 | 0.00 | 0.00 | 0.00 | 80 | 1021.9 |
| 20260905220511 | 20 | 298 | 0.0 | 0.0 | 0.00 | 0.00 | 0.00 | 80 | 1021.9 |
| 20260905215511 | 21 | 136 | 0.0 | 0.0 | 0.00 | 0.00 | 0.00 | 81 | 1021.9 |
| 20260905215011 | 21 | 143 | 0.0 | 0.0 | 0.00 | 0.00 | 0.00 | 80 | 1021.9 |
| 20260905214511 | 20 | 58 | 0.0 | 0.0 | 0.00 | 0.00 | 0.00 | 81 | 1021.9 |
| 20260905214011 | 20 | 58 | 0.0 | 0.0 | 0.00 | 0.00 | 0.00 | 81 | 1022.0 |
| 20260905213511 | 20 | 126 | 0.0 | 0.0 | 0.00 | 0.00 | 0.00 | 80 | 1022.1 |
| 20260905213012 | 20 | 138 | 1.6 | 0.0 | 0.00 | 0.00 | 0.00 | 80 | 1022.3 |
| 20260905212512 | 20 | 109 | 0.0 | 0.0 | 0.00 | 0.00 | 0.00 | 81 | 1022.3 |
| 20260905211011 | 20 | 211 | 0.0 | 0.0 | 0.00 | 0.00 | 0.00 | 81 | 1022.6 |
| 20260905210511 | 20 | 139 | 0.0 | 0.0 | 0.00 | 0.00 | 0.00 | 81 | 1022.5 |
| 20260905210011 | 20 | 140 | 0.0 | 0.0 | 0.00 | 0.00 | 0.00 | 82 | 1022.4 |
| 20260905205512 | 20 | 140 | 0.0 | 0.0 | 0.00 | 0.00 | 0.00 | 82 | 1022.6 |
| 20260905204512 | 20 | 60 | 0.0 | 0.0 | 0.00 | 0.00 | 0.00 | 82 | 1022.9 |
| 20260905204011 | 20 | 59 | 0.0 | 0.0 | 0.00 | 0.00 | 0.00 | 81 | 1022.8 |
| 20260905203511 | 20 | 70 | 0.0 | 0.0 | 0.00 | 0.00 | 0.00 | 81 | 1022.9 |
| 20260905203011 | 21 | 126 | 0.0 | 0.0 | 0.00 | 0.00 | 0.00 | 80 | 1022.8 |
| 20260905202511 | 20 | 119 | 0.0 | 0.0 | 0.00 | 0.00 | 0.00 | 80 | 1022.8 |
| 20260905202011 | 20 | 190 | 0.0 | 0.0 | 0.00 | 0.00 | 0.00 | 81 | 1022.8 |
| 20260905201511 | 20 | 190 | 0.0 | 0.0 | 0.00 | 0.00 | 0.00 | 80 | 1022.8 |
| 20260905201012 | 20 | 253 | 0.0 | 0.0 | 0.00 | 0.00 | 0.00 | 82 | 1022.9 |
| 20260905200012 | 20 | 253 | 0.0 | 0.0 | 0.00 | 0.00 | 0.00 | 81 | 1022.9 |
| 20260905195511 | 20 | 253 | 0.0 | 0.0 | 0.00 | 0.00 | 0.00 | 82 | 1023.0 |
| 20260905195012 | 20 | 266 | 0.0 | 0.0 | 0.00 | 0.00 | 0.00 | 81 | 1023.2 |
| 20260905194512 | 20 | 280 | 0.0 | 0.0 | 0.00 | 0.00 | 0.00 | 81 | 1023.2 |
| 20260905194012 | 20 | 257 | 0.0 | 0.0 | 0.00 | 0.00 | 0.00 | 81 | 1023.1 |
| 20260905193511 | 20 | 257 | 0.0 | 0.0 | 0.00 | 0.00 | 0.00 | 81 | 1022.9 |
| 20260905193011 | 20 | 55 | 0.0 | 0.0 | 0.00 | 0.00 | 0.00 | 82 | 1022.9 |
| 20260905192511 | 20 | 55 | 0.0 | 0.0 | 0.00 | 0.00 | 0.00 | 82 | 1023.0 |
| 20260905192011 | 19 | 23 | 0.0 | 0.0 | 0.00 | 0.00 | 0.00 | 82 | 1023.1 |